Zurück zum Katalog

LEMUR 2 KRISH

AktivWissenschaftSSO
NORAD 64561·PAYLOAD·🇺🇸 United States

Gestartet Jun 23, 2025 von Vandenberg Space Force Base

Loading…

Nächste Überflüge (nächste 24 Stunden)

TLE

AktuellSource: Space-Track

Epoche: Sep 14, 2026, 01:35 UTC

1 64561U 25135AK  26257.06632154  .00004550  00000-0  40144-3 0  9997
2 64561  97.7819  11.4057 0001700 103.2125 256.9286 14.96898058 67217

Verfolge LEMUR 2 KRISH in Echtzeit mit AllMySat

Download on the App Store